CDT,Max TemperatureF,Mean TemperatureF,Min TemperatureF,Max Dew PointF,MeanDew PointF,Min DewpointF,Max Humidity, Mean Humidity, Min Humidity, Max Sea Level PressureIn, Mean Sea Level PressureIn, Min Sea Level PressureIn, Max VisibilityMiles, Mean VisibilityMiles, Min VisibilityMiles, Max Wind SpeedMPH, Mean Wind SpeedMPH, Max Gust SpeedMPH,PrecipitationIn, CloudCover, Events, WindDirDegrees
2013-6-1,78,71,64,71,65,63,94,87,71,29.97,29.87,29.79,10,9,1,28,12,34,1.63,5,Rain-Thunderstorm,179
2013-6-2,74,67,61,65,61,58,95,80,61,30.00,29.94,29.89,10,10,10,14,8,18,0.00,4,,291
2013-6-3,72,64,57,59,55,51,95,75,49,30.10,30.03,29.99,10,9,5,9,5,,0.00,5,,346
2013-6-4,79,66,53,63,57,52,95,72,46,30.10,30.05,30.00,10,9,5,8,3,,0.00,1,,63
2013-6-5,84,72,61,68,62,57,93,69,42,30.02,29.93,29.83,10,10,5,6,2,,0.00,2,Rain,23
2013-6-6,84,76,68,68,64,60,92,70,44,29.83,29.80,29.77,10,9,4,10,5,,0.02,4,Rain,312
2013-6-7,78,70,63,64,62,59,91,76,59,29.89,29.84,29.79,10,9,5,13,7,17,0.00,4,,328
2013-6-8,82,71,60,63,60,56,95,71,42,30.00,29.95,29.89,10,7,1,7,3,,0.00,3,,219
2013-6-9,82,72,62,70,64,59,95,80,50,30.01,29.92,29.82,10,9,3,18,4,26,0.31,4,Rain-Thunderstorm,151
2013-6-10,80,72,65,69,65,63,95,84,57,29.94,29.86,29.80,10,8,2,13,6,17,0.12,5,Rain-Thunderstorm,225
2013-6-11,91,74,59,75,68,59,96,75,50,30.01,29.95,29.89,10,8,0,12,3,16,0.00,0,Fog-Thunderstorm,180
2013-6-12,95,86,77,74,71,67,88,63,41,29.99,29.88,29.77,10,10,10,24,10,34,0.00,0,,217
2013-6-13,85,76,67,71,63,52,73,59,32,29.98,29.87,29.75,10,10,10,22,13,30,0.00,3,,311
2013-6-14,85,72,59,65,56,51,90,60,32,30.08,30.03,29.96,10,10,5,13,4,17,0.00,0,,342
2013-6-15,90,76,61,66,60,53,94,61,28,30.10,30.03,29.96,10,10,5,16,3,21,0.00,0,,187
2013-6-16,85,77,69,71,67,65,91,75,54,30.03,29.99,29.94,10,10,7,13,4,21,0.00,1,Rain-Thunderstorm,154
2013-6-17,91,80,68,73,68,63,96,81,38,29.98,29.93,29.87,10,7,0,17,3,25,0.18,3,Fog-Rain-Thunderstorm,119
2013-6-18,91,76,62,67,63,57,96,70,31,29.97,29.93,29.87,10,9,1,26,5,34,0.00,1,Rain-Thunderstorm,342
2013-6-19,89,76,62,68,63,56,96,69,35,30.08,30.03,29.97,10,8,1,8,4,,0.00,1,,69
2013-6-20,92,80,67,68,64,57,94,64,32,30.15,30.11,30.07,10,9,2,9,2,,0.00,0,,133
2013-6-21,94,81,69,72,68,66,92,67,40,30.16,30.12,30.08,10,9,7,13,4,18,0.00,1,Thunderstorm,159
2013-6-22,93,82,71,72,68,65,91,70,40,30.15,30.10,30.05,10,9,5,22,6,34,0.00,2,Rain-Thunderstorm,172
2013-6-23,85,76,68,72,69,66,93,83,58,30.12,30.07,30.03,10,8,4,18,3,38,0.15,3,Rain-Thunderstorm,116
2013-6-24,84,76,69,72,69,67,94,82,55,30.13,30.08,30.02,10,9,3,17,6,21,0.50,2,Rain-Thunderstorm,144
2013-6-25,95,83,71,74,72,69,95,70,44,30.04,29.97,29.87,10,9,2,15,7,20,0.00,1,,185
2013-6-26,91,82,73,76,72,70,92,76,54,29.94,29.84,29.70,10,10,7,23,9,31,0.12,2,Rain-Thunderstorm,202
2013-6-27,96,84,73,77,70,63,93,67,34,29.86,29.82,29.77,10,10,7,16,6,23,0.00,0,,285
2013-6-28,93,82,70,71,63,51,83,56,31,29.82,29.74,29.66,10,10,7,18,9,25,0.00,2,Rain,286
2013-6-29,87,76,65,67,62,59,94,67,39,29.70,29.66,29.62,10,10,1,20,8,28,0.36,1,Rain-Thunderstorm,271
2013-6-30,80,72,64,68,65,63,96,83,56,29.85,29.77,29.69,10,9,5,13,6,17,0.06,5,Rain-Thunderstorm,328